Regional Weather Roundup
Issued by NWS

Home | Current Version | Previous Version | Graphics & Text | Print | Product List | Glossary On
Versions: 1 2 3 4 5 6 7 8 9 10 11 12 13 14 15 16 17 18 19 20 21 22 23 24 25 26 27 28 29 30 31 32 33 34 35 36 37 38 39 40 41 42 43 44 45 46 47 48 49 50
332
ASUS44 KJAN 281603
RWRMS

MISSISSIPPI HOURLY WEATHER ROUNDUP
NATIONAL WEATHER SERVICE JACKSON MS
1100 AM CDT MON JUL 28 2014

NOTE: "FAIR: INDICATES FEW OR NO CLOUDS BELOW 12,000 FEET WITH NO
SIGNIFICANT WEATHER AND/OR OBSTRUCTIONS TO VISIBILITY.

MSZ001>002-007>008-010>013-018>021-025>028-034>036-281700-
NORTHWEST MISSISSIPPI

CITY           SKY/WX    TMP DP  RH WIND       PRES   REMARKS
CLARKSDALE     FAIR      82  66  57 N9        30.10S
CLEVELAND      FAIR      82  69  63 N10       30.08S
GREENWOOD      SUNNY     84  70  62 N8        30.06S
GREENVILLE     SUNNY     85  67  54 N9        30.07F
GRENADA        FAIR      82  63  51 N9        30.07S
OLIVE BRANCH   MOSUNNY   79  64  61 N9        30.10S
OXFORD         FAIR      81  61  50 N7        30.10S
TUNICA         SUNNY     81  63  54 NW9       30.10F
$$

MSZ003>006-009-014>017-022>024-029>033-037>039-281700-
NORTHEAST MISSISSIPPI

CITY           SKY/WX    TMP DP  RH WIND       PRES   REMARKS
BELMONT        FAIR      80  65  59 NW7       30.06R
COLUMBUS AFB   SUNNY     85  65  51 N10       30.04R
CORINTH        FAIR      79  59  50 N9        30.06S
GOLDN TRIANGLE MOSUNNY   86  72  62 N8        30.04S HX  92
STARKVILLE     FAIR      82  70  65 N3        30.04S
TUPELO         SUNNY     83  63  50 N9        30.05S
$$

MSZ040-058-281700-
CENTRAL MISSISSIPPI

CITY           SKY/WX    TMP DP  RH WIND       PRES   REMARKS
JACKSON INTL   PTSUNNY   85  75  72 W8        30.06S HX  93
JACKSON HAWKNS PTSUNNY   85  73  67 NW9       30.07S HX  91
MERIDIAN KEY   PTSUNNY   87  75  67 NW10G17   30.03S HX  96
MERIDIAN NAS   PTSUNNY   87  75  67 W8        30.03S HX  96
RAYMOND        FAIR      84  81  89 NW5       30.07S HX  98
VICKSBURG      PTSUNNY   84  72  67 NW3       30.07S
$$

MSZ059>079-281700-
SOUTH MISSISSIPPI

CITY           SKY/WX    TMP DP  RH WIND       PRES   REMARKS
BROOKHAVEN     PTSUNNY   82  77  83 NW7       30.10S HX  91
COLUMBIA       FAIR      90  79  70 NW12G18   30.06F HX 105
HATTIESBURG    MOSUNNY   89  75  63 NW12G21   30.06F HX  99
MCCOMB         PTSUNNY   86  75  69 NW9G21    30.09S HX  95
NATCHEZ        CLOUDY    81  75  83 W6        30.10F
PINE BELT      MOSUNNY   88  75  66 NW9G17    30.08S HX  97
$$

MSZ080>082-281700-
COASTAL MISSISSIPPI

CITY           SKY/WX    TMP DP  RH WIND       PRES   REMARKS
BAY ST LOUIS   MOSUNNY  N/A N/A N/A NW13      30.07F
BILOXI         MOSUNNY   92  78  65 VRB3      30.06F HX 107
PASCAGOULA     SUNNY     91  76  61 W7        30.05F HX 103
GULFPORT       MOSUNNY   93  76  57 W14       30.05F HX 105
$$



USA.gov is the U.S. government's official web portal to all federal, state and local government web resources and services.